STARLINK-11178, 62465

Orbit data source: Space-Track

STARLINK-11178, 62465 is a payload satellite owned by SpaceX/Seattle (US) in LEO that was launched on Tue, 31 Dec 2024 UTC via an FALCON 9 launch vehicle from the Air Force Eastern Test Range (AFETR). Payloads include a variety of satellites, spacecraft, and rockets equipped with specific instruments for various scientific and technological missions. These include communications satellites like Starlink; space stations such as the ISS; scientific satellites like the Hubble; Earth observation satellites from companies like Planet Labs, Umbra, and HawkEye 360; GPS; miniature CubeSats for education and research; and military/defense satellites.

Loading next visibility...
STARLINK-11178 details
Identifier
62465, 2024-254D
Orbit
LEO
Last TLE update18 hours ago
Origin
Flag of USSpaceX/Seattle (US)
ManufacturerSpaceX/Seattle
MissionOperational Commercial Communications
Bus & MotorSTARLINK V2M, Unknown motor
Mass730 kg wet, ~700 kg dry
Launch date (UTC)
2024-12-31 (1 month ago)
Launch vehicle
FALCON 9
Launch site
Air Force Eastern Test Range (AFETR)
Object type
Payload
Rocket body
Debris
Shape & HBRBox + 2 Pan, 29 m
Radar Cross Section36.964 m², Large (>1 m²)

Expand to show TLE details & history

TLE from 18 hours ago
0 STARLINK-11178
1 62465U 24254D   25035.46490638 -.00000327  00000-0  99276-6 0  9997
2 62465  43.0023 104.8869 0002460 280.4214  79.6379 15.77859101  6591
Epoch: 2025-02-04T11:09Z
Definitive object data (Epoch: 2025-02-04T11:09:27.911Z)
Latitude-0°
Longitude162.65079°
Altitude335.982 km
Speed7.709 km/s
True Right ascension06h 59m 32s
True Declination0° 00' 00"
Sunlit
Object was in full shadow at TLE epoch
Visualization TLE readout
Latitude-29.34358°
Longitude14.99452°
Altitude343.423 km
Speed7.704 km/s
Apparent Right ascension20h 06m 24s
Apparent Declination-35° 32' 25"
Sunlit
Object is in daylight
Visualization observer readout
Local Sidereal Time06:51:08
Azimuth280.451° WNW
Elevation-74.524°
Doppler factor1
Orbital elements
Apogee altitude340.147 km
Perigee altitude336.842 km
Semi-major axis6,716.632 km
Eccentricity0.000246
Inclination43.0023°
RAAN104.8869°
Arg. of periapsis280.4214°
True anomaly79.66563°
Mean anomaly79.6379°
Eccentric anomaly79.65177°
Mean motion3.9429 °/min
BSTAR9.9276e-7
Orbital period91.3 mins
Loading maneuver chart data...
Loading historical data...
Loading historical data...
Loading historical data...
Loading historical data...
Loading historical data...
Loading historical data...
Loading historical data...

STARLINK-11178 Visibility forecast

Observer location: undefined°, undefined

Span
Click to sort rows by Start time (UTC) header in descending order
Start Az.
Max El. time (UTC)
Max El. Az.
Max El.
End time (UTC)
End Az.
4 mins2025-02-05 08:41:14.459Z246.952° WSW2025-02-05 08:43:14.459Z92.408° ESE43.435°2025-02-05 08:45:14.459Z73.189° E
4 mins2025-02-05 10:17:14.459Z294.914° NW2025-02-05 10:19:14.459Z25.707° NE31.74°2025-02-05 10:21:14.459Z69.35° E
4 mins2025-02-05 11:53:14.459Z297.002° NW2025-02-05 11:54:14.459Z321.278° NNW39.26°2025-02-05 11:57:14.459Z98.231° ESE
|